www.pogodaiklimat.ru

Погода и климат >> Архив погоды >> Италия >> Капо Беллависто


ПОГОДА на Капо Беллависто

  • Прогноз погоды на Капо Беллависто
  • Монитор погоды на Капо Беллависто

АРХИВ ПОГОДЫ на Капо Беллависто

Время (UTC), дата Ветер
(напр.,м/с)
 
Видим.   Явления Облачность Т
(С)
Тd
(С)
f
(%)
Тe
(С)
Тes
(С)
Комфортность P
(гПа)
Po
(гПа)
Тmin
(С)
Tmax
(С)
R
(мм)
R24
(мм)
S
(см)
07 13.04 З 2 20 км 3/3 600 м
[Cu med, cong]
+11.2 +5.1 66 +10 +13 1012.2 994.2
08 13.04 ЮЗ 3 25 км 3/3 900 м
[Cu med, cong]
+13.8 +6.7 62 +13 +18 1012.3 994.5
09 13.04 ЮВ 3 20 км 3/3 1050 м
[Cu med, cong]
+17.0 +9.4 61 +17 +25 1012.3 994.6
10 13.04 Ю 2 20 км 3/3 1050 м
[Cu med, cong]
+18.8 +10.4 58 +20 +30 1012.5 995.0
11 13.04 Ю 2 25 км 4/3 1050 м
[Cu med, cong Ci fib]
+19.8 +11.2 58 +22 +33 комфорт 1012.5 995.0
12 13.04 Ю 3 20 км 6/5 900 м
[Cu med, cong Ci fib]
+19.2 +10.1 56 +20 +28 1012.5 995.0
13 13.04 ЮВ 5 25 км 8/5 900 м
[Cu med, cong Ac und Ci fib]
+19.2 +10.1 56 +20 +23 1012.5 995.0
14 13.04 В 2 20 км гроза без осадков 9/5 600 м
[Cb cap Ac As Ci sp]
+17.2 +10.8 66 +18 +21 1012.4 994.7
15 13.04 Ю 2 10 км гроза, ливневой дождь 10/8 600 м
[Cb cap Ac As Ci sp]
+13.0 +11.7 92 +12 +13 1012.9 995.0
16 13.04 С 2 10 км слаб. ливневой дождь, в посл. час гроза 10/10 300 м
[Cb cap]
+12.2 +11.2 94 +11 +11 1013.1 995.2
17 13.04 З 4 20 км в посл. час дождь 9/5 300 м
[Cu med, cong Ac As Ci sp]
+11.0 +9.9 93 +8 +9 1013.1 995.1
18 13.04 З 4 20 км {гроза, дождь} 9/4 600 м
[Cu med, cong Ac As]
+11.0 +9.6 91 +8 +8 1013.0 995.0 +20.6 5
19 13.04 СЗ 4 25 км 6/3 600 м
[Cu med, cong Ac As]
+11.0 +9.6 91 +9 +9 1013.2 995.2
20 13.04 СЗ 3 20 км 6/3 450 м
[Cu med, cong Ac As]
+11.2 +9.8 91 +9 +9 1013.8 995.8
21 13.04 З 4 20 км 4/1 750 м
[Cu med, cong Ac As]
+11.0 +9.6 91 +8 +8 1014.1 996.0
22 13.04 З 3 20 км 1/1 900 м
[Cu med, cong]
+11.8 +6.1 68 +10 +10 1014.0 996.0
23 13.04 СЗ 3 30 км 1/1 900 м
[Cu med, cong]
+11.4 +5.2 66 +10 +10 1014.0 996.0
00 14.04 СЗ 5 30 км ясно +11.8 +6.1 68 +9 +9 1013.8 995.8
01 14.04 СЗ 5 20 км ясно +11.4 +4.3 62 +9 +9 1013.4 995.4
02 14.04 СЗ 2 20 км ясно +11.6 +3.1 56 +11 +11 1013.1 995.1
03 14.04 СЗ 6 20 км ясно +11.6 +4.5 62 +9 +9 1012.8 994.8
04 14.04 З 5 20 км ясно +11.2 +3.0 57 +9 +9 1012.5 994.5
05 14.04 СЗ 7 20 км ясно +11.0 +3.3 59 +8 +8 1012.3 994.3
06 14.04 З 3 20 км ясно +11.0 +0.7 49 +9 +11 1012.6 994.6 +10.8
07 14.04 ЮЗ 4 20 км 4/0
[Ac und]
+12.0 +1.5 49 +10 +12 1012.7 994.8
08 14.04 ЮЗ 4 20 км 6/0
[Ac und]
+14.2 +1.4 42 +13 +17 1011.9 994.1
09 14.04 З 2 20 км 6/0
[Ac und]
+16.2 -0.2 33 +17 +24 1011.7 994.0
10 14.04 З 3 30 км 5/0
[Ac und]
+18.4 -8.3 15 +19 +28 1011.5 994.0
11 14.04 З 6 20 км 4/1 900 м
[Cu hum Ac trans Cc]
+19.0 -9.9 13 +18 +23 1011.4 993.9
12 14.04 З 5 20 км 4/1 1200 м
[Cu hum Ac trans Ci fib]
+19.6 -7.1 16 +19 +25 1010.5 993.0
13 14.04 З 3 30 км 4/1 1200 м
[Cu hum Ac trans]
+20.4 -1.8 22 +21 +29 комфорт 1010.5 993.1
14 14.04 З 12 30 км 8/3 1200 м
[Cu med, cong Ac trans Ci fib]
+19.2 -4.4 20 +18 +18 1009.8 992.4
15 14.04 З 8 20 км 5/1 1200 м
[Cu med, cong Ac trans]
+18.2 -4.2 21 +17 +18 1009.6 992.0
16 14.04 З 8 20 км 8/0
[Ac und Ci fib]
+18.0 +18.0 100 +17 +18 1009.6 992.1
17 14.04 З 5 20 км 8/0
[Ac und Ci fib]
+17.6 -5.5 20 +17 +17 1009.1 991.5
18 14.04 штиль 0 20 км 8/0 2000 м
[Ac und Ci fib]
+15.6 -14.7 11 +16 +16 1009.0 991.3 +20.8
19 14.04 СЗ 10 20 км 5/0
[Ac trans Ci fib]
+14.0 -11.7 16 +12 +12 1009.0 991.2
20 14.04 СЗ 11 20 км 1/0
[Ci fib]
+12.2 -4.5 31 +9 +9 1009.4 991.6
21 14.04 СЗ 9 20 км ясно +16.0 +4.1 45 +14 +14 1010.0 992.3
22 14.04 СЗ 9 20 км ясно +10.8 -0.2 47 +7 +7 1010.9 992.9
23 14.04 СЗ 8 20 км ясно +10.8 +0.9 50 +8 +8 1011.6 993.6
00 15.04 СЗ 7 20 км ясно +10.8 +4.0 63 +8 +8 1011.8 993.8
01 15.04 СЗ 10 20 км ясно +10.0 +3.5 64 +6 +6 1012.0 993.9
02 15.04 СЗ 9 20 км ясно +11.0 +2.3 55 +7 +7 1012.0 994.0
03 15.04 С 9 20 км ясно +11.0 +3.8 61 +7 +7 1012.1 994.0
04 15.04 С 12 20 км 3/3 900 м
[Cu med, cong]
+11.2 +3.0 57 +7 +7 1012.2 994.2
05 15.04 С 10 25 км 5/5 900 м
[Cu med, cong]
+11.4 +3.3 57 +8 +8 1012.9 994.9
06 15.04 С 8 20 км 4/4 1200 м
[Cu med, cong]
+11.6 +4.5 62 +8 +9 1013.1 995.1 +10.6
07 15.04 С 10 20 км 3/3 1200 м
[Cu med, cong]
+12.4 +5.0 61 +9 +9 1014.3 996.3
08 15.04 СВ 12 20 км 4/0 1200 м
[]
+13.8 +5.4 57 +11 +11 1014.8 996.9
09 15.04 СВ 13 20 км 3/3 1200 м
[Cu med, cong]
+14.0 +8.0 67 +11 +11 1015.1 997.2
10 15.04 СВ 14 30 км 4/4 1200 м
[Cu med, cong]
+15.0 +10.4 74 +12 +12 1015.7 997.9
11 15.04 СВ 15 30 км 3/3 1200 м
[Cu med, cong]
+14.4 +10.0 75 +11 +11 1015.8 998.0
12 15.04 СВ 11 20 км 1/1 1200 м
[Cu med, cong]
+14.6 +9.2 70 +12 +12 1016.4 998.5
13 15.04 В 11 20 км 1/1 1200 м
[Cu med, cong]
+14.6 +10.0 74 +12 +12 1016.2 998.3
14 15.04 В 11 30 км 1/1 1200 м
[Cu med, cong]
+14.6 +9.6 72 +12 +12 1016.0 998.1
15 15.04 ЮЗ 12 20 км 1/1 900 м
[Cu med, cong]
+13.6 +9.8 78 +10 +10 1016.3 998.4
16 15.04 В 10 20 км 3/1 900 м
[Cu med, cong Ac trans]
+13.4 +9.7 78 +10 +10 1016.7 998.8
17 15.04 СВ 8 20 км 6/6 600 м
[Cu med, cong]
+12.8 +10.0 83 +10 +10 1017.1 999.1
18 15.04 СВ 8 20 км 5/4 600 м
[Cu med, cong Ci fib]
+12.4 +9.1 80 +9 +9 1017.6 999.6 +15.0
19 15.04 СВ 5 20 км 9/9 900 м
[Cu med, cong]
+12.2 +7.9 75 +10 +10 1018.3 1000.2
20 15.04 З 4 20 км 6/4 900 м
[Cu med, cong Ac cast]
+12.2 +7.5 73 +10 +10 1018.4 1000.4
21 15.04 СЗ 5 20 км 9/3 900 м
[Cu med, cong Ac As]
+12.0 +9.4 84 +9 +9 1018.6 1000.6
22 15.04 СЗ 5 20 км 5/0 2000 м
[]
+12.0 +9.6 85 +10 +10 1019.0 1001.0
23 15.04 СЗ 4 20 км 5/0
[Ac trans]
+12.0 +9.2 83 +10 +10 1019.0 1001.0
00 16.04 СЗ 4 20 км 6/0 2000 м
[Ci fib]
+12.0 +6.9 71 +10 +10 1019.5 1001.5
01 16.04 З 3 20 км 5/0
[As trans]
+12.0 +5.6 65 +11 +11 1018.2 1000.2
02 16.04 З 2 20 км 9/0
[Ac As]
+11.8 +7.7 76 +11 +11 1018.0 1000.0
03 16.04 З 3 20 км 10/3 1500 м
[Cu med, cong Ac As]
+12.0 +8.7 80 +11 +11 1017.9 999.9
04 16.04 З 3 20 км 10/3 1500 м
[Cu med, cong Ac As]
+11.2 +6.9 75 +9 +9 1017.6 999.5
05 16.04 З 2 20 км 10/3 1500 м
[Cu med, cong As op]
+11.4 +6.3 71 +10 +10 1018.1 1000.0
06 16.04 СЗ 3 20 км 9/3 1500 м
[Cu med, cong As op]
+11.2 +5.9 70 +9 +10 1018.1 1000.0 +11.0
07 16.04 СЗ 5 20 км 9/0
[Ac As]
+11.0 +6.4 73 +8 +10 1019.0 1000.9
08 16.04 З 2 20 км 8/0
[Ac As Ci fib]
+12.8 +6.6 66 +12 +16 1019.2 1001.2
09 16.04 ЮВ 2 20 км 6/0 2000 м
[Ac As Ci fib]
+17.6 +7.9 53 +18 +26 1019.0 1001.2
10 16.04 ЮВ 3 20 км 6/0
[Ac As]
+20.4 +9.3 49 +22 +29 комфорт 1019.2 1001.6
11 16.04 Ю 2 20 км 5/0 2000 м
[]
+22.0 +11.4 51 +24 +37 комфорт 1018.7 1001.3
12 16.04 СВ 2 20 км 10/1 900 м
[Cu med, cong Ac As]
+18.4 +12.2 67 +19 +24 1018.7 1001.1
13 16.04 ЮВ 4 20 км 8/1 900 м
[Cu med, cong Ac As]
+19.0 +12.7 67 +20 +24 1018.5 1000.9
14 16.04 ЮВ 3 20 км 8/3 900 м
[Cu med, cong Ac As]
+19.4 +12.9 66 +21 +24 комфорт 1018.6 1001.0
15 16.04 ЮВ 5 20 км 10/3 900 м
[Cu Sc As op]
+17.2 +12.3 73 +17 +17 1018.8 1001.0
16 16.04 В 3 20 км 10/0 900 м
[]
+16.6 +13.1 80 +17 +19 1018.9 1001.1
17 16.04 ЮВ 2 20 км 9/3 900 м
[Cu Sc As op]
+14.8 +12.3 85 +14 +15 1019.1 1001.2
18 16.04 ЮВ 2 20 км 8/3 600 м
[Cu Sc Ac trans]
+14.0 +12.1 88 +14 +14 1019.2 1001.3 +22.0
19 16.04 ЮВ 2 20 км 9/6 600 м
[Cu Sc Ac trans]
+13.6 +12.5 93 +13 +13 1019.8 1001.8
20 16.04 Ю 2 20 км 8/4 1200 м
[Sc Ac trans]
+12.6 +11.3 92 +12 +12 1020.0 1001.9
21 16.04 З 3 20 км 4/0 1050 м
[]
+13.0 +12.1 94 +12 +12 1020.0 1002.0
22 16.04 З 4 20 км 4/1 1050 м
[Sc Ac trans]
+12.6 +11.3 92 +11 +11 1019.6 1001.6
23 16.04 З 5 20 км ясно +11.8 +10.5 92 +9 +9 1019.9 1001.8
00 17.04 СЗ 4 20 км ясно +10.4 +9.3 93 +8 +8 1020.1 1001.9
01 17.04 С 2 20 км ясно +11.2 +10.0 92 +10 +10 1020.0 1001.9
02 17.04 С 2 20 км ясно +11.4 +9.5 88 +10 +10 1019.0 1000.9
03 17.04 С 3 20 км ясно +11.0 +9.1 88 +9 +9 1019.1 1001.0
04 17.04 СЗ 3 20 км ясно +10.6 +8.5 87 +8 +8 1019.3 1001.1
05 17.04 СЗ 3 20 км 1/1 900 м
[Sc]
+10.4 +6.7 78 +8 +8 1019.5 1001.3
06 17.04 С 3 20 км ясно +11.4 +7.5 77 +10 +11 1019.4 1001.3 +10.4
07 17.04 В 4 20 км 4/4 180 м
[St]
+16.4 +10.9 70 +16 +17 1019.9 1002.0
08 17.04 В 4 20 км 4/4 240 м
[St]
+17.0 +9.9 63 +17 +20 1020.2 1002.4
09 17.04 В 4 20 км 4/4 540 м
[Cu med, cong]
+18.0 +11.6 66 +18 +23 1020.3 1002.5
10 17.04 В 6 20 км 3/3 540 м
[Cu med, cong]
+19.0 +12.3 65 +20 +24 1020.2 1002.6
11 17.04 З 5 20 км 4/4 540 м
[Cu Sc]
+18.8 +12.3 66 +19 +24 1019.8 1002.1
12 17.04 В 5 20 км 8/3 600 м
[Cu med, cong Ac trans]
+18.0 +12.9 72 +18 +22 1020.0 1002.2
13 17.04 В 5 20 км 9/6 600 м
[Cu Sc Ac trans]
+18.0 +12.5 70 +18 +20 1020.0 1002.2
14 17.04 В 4 10 км 9/6 600 м
[Cu Sc Ac trans]
+18.0 +11.6 66 +18 +19 1019.5 1001.8
15 17.04 В 4 10 км 9/6 600 м
[Cu Sc Ac trans]
+18.0 +12.0 68 +18 +19 1019.4 1001.7
16 17.04 ЮВ 2 20 км 9/5 600 м
[Cu Sc Ac trans]
+16.0 +11.6 75 +16 +17 1019.3 1001.5
17 17.04 ЮВ 2 20 км 8/5 600 м
[Cu Sc Ac trans]
+15.8 +12.0 78 +16 +16 1019.3 1001.5
18 17.04 В 1 20 км 6/3 540 м
[Cu med, cong Ac trans]
+15.0 +12.0 82 +15 +15 1019.4 1001.5 +19.2
19 17.04 В 1 20 км 5/3 540 м
[Cu hum Ac trans]
+14.0 +11.5 85 +14 +14 1019.7 1001.8
20 17.04 Ю 2 20 км 4/1 540 м
[Cu med, cong Ac trans]
+13.8 +11.9 88 +14 +14 1020.2 1002.2
21 17.04 ЮЗ 2 20 км 3/3 600 м
[Cu med, cong]
+13.2 +11.6 90 +13 +13 1020.2 1002.2
22 17.04 З 1 20 км 3/3 600 м
[Cu med, cong]
+12.8 +11.4 91 +13 +13 1020.5 1002.5
23 17.04 ЮЗ 1 20 км 3/3 600 м
[Cu med, cong]
+13.0 +11.9 93 +13 +13 1020.8 1002.7
00 18.04 З 2 20 км 5/3 600 м
[Cu med, cong Ac trans]
+12.8 +11.9 94 +12 +12 1020.7 1002.6
01 18.04 СЗ 4 20 км 5/3 600 м
[Cu med, cong Ac trans]
+12.6 +11.5 93 +11 +11 1020.3 1002.2
02 18.04 СЗ 4 20 км 5/3 600 м
[Cu med, cong Ac trans]
+12.8 +11.4 91 +11 +11 1020.3 1002.3
03 18.04 СЗ 5 20 км ясно +11.0 +9.1 88 +8 +8 1020.1 1001.9
04 18.04 СЗ 5 20 км ясно +10.4 +8.5 88 +7 +7 1020.2 1002.0
05 18.04 С 4 20 км 3/3 540 м
[Cu med, cong]
+10.8 +7.7 81 +8 +8 1020.3 1002.1
06 18.04 С 3 20 км 3/3 450 м
[Cu med, cong]
+11.0 +7.9 81 +9 +10 1020.8 1002.6 +10.4
07 18.04 С 2 20 км 3/3 450 м
[Cu med, cong]
+13.0 +8.9 76 +12 +15 1021.0 1002.9
08 18.04 СВ 4 20 км 9/3 1000 м
[Cu med, cong Ci fib]
+17.8 +11.5 67 +18 +21 1020.5 1002.8
09 18.04 СЗ 3 20 км 9/3 1000 м
[Cu med, cong Ci fib]
+20.0 +12.2 61 +22 +28 комфорт 1020.4 1002.8
10 18.04 З 4 20 км 8/3 1000 м
[Cu med, cong Ci fib]
+20.0 +12.2 61 +22 +28 комфорт 1020.7 1003.1
11 18.04 В 5 30 км 8/3 1000 м
[Cu med, cong Ci fib]
+18.2 +12.3 68 +18 +23 1020.8 1003.1
12 18.04 В 5 20 км 8/3 1000 м
[Cu med, cong Ci fib]
+18.4 +11.8 65 +18 +24 1020.7 1003.0
13 18.04 В 4 20 км 8/3 1000 м
[Cu med, cong Ci fib]
+18.0 +12.1 68 +18 +24 1020.7 1003.0
14 18.04 В 5 20 км 6/1 1000 м
[Cu med, cong Ci fib]
+17.2 +11.7 70 +17 +22 1020.4 1002.6
15 18.04 В 4 20 км 6/1 1050 м
[Cu hum Ci fib]
+17.0 +11.7 71 +17 +20 1020.0 1002.3
16 18.04 В 4 20 км 6/1 1050 м
[Cu hum Ci fib]
+16.8 +12.2 74 +16 +18 1019.8 1002.1
17 18.04 В 3 20 км 6/1 1050 м
[Cu hum Ci fib]
+16.4 +12.4 77 +16 +17 1019.9 1002.1
18 18.04 В 3 20 км 4/0
[Ci fib]
+14.8 +12.8 88 +14 +14 1020.8 1002.9 +20.4
19 18.04 СВ 3 20 км ясно +13.6 +11.9 89 +12 +12 1021.0 1003.0
20 18.04 СЗ 5 20 км ясно +12.4 +9.6 83 +10 +10 1021.5 1003.4
21 18.04 СЗ 6 20 км ясно +12.0 +8.7 80 +9 +9 1022.1 1004.0
22 18.04 СЗ 6 30 км ясно +12.0 +7.1 72 +9 +9 1022.2 1004.1
23 18.04 С 5 20 км ясно +12.0 +5.9 66 +10 +10 1023.1 1004.9
00 19.04 С 5 30 км ясно +11.8 +3.8 58 +10 +10 1023.2 1005.0
01 19.04 С 4 20 км ясно +11.4 +6.1 70 +9 +9 1023.2 1005.0
02 19.04 С 4 30 км ясно +11.4 +6.1 70 +9 +9 1011.0 993.0
03 19.04 С 4 20 км 1/1 600 м
[St]
+11.0 -30.0 4 +10 +10 1023.2 1005.0
04 19.04 С 5 20 км 4/4 600 м
[St]
+11.2 +4.2 62 +9 +9 1023.2 1005.0
05 19.04 СЗ 6 25 км 6/6 600 м
[Cu med, cong]
+11.2 +4.4 63 +9 +9 1023.2 1005.0
06 19.04 С 4 20 км 6/6 600 м
[Cu med, cong]
+12.0 +4.5 60 +10 +11 1023.7 1005.5 +10.8
07 19.04 С 4 20 км 9/9 600 м
[Cu Sc]
+13.0 +7.9 71 +11 +12 1024.1 1006.0
08 19.04 СВ 3 20 км 10/10 300 м
[Cu Sc]
+16.0 +12.4 79 +16 +16 1024.0 1006.1
09 19.04 В 5 20 км 8/8 300 м
[Cu Sc]
+17.6 +12.3 71 +17 +19 1024.7 1006.9
10 19.04 В 5 25 км 6/4 900 м
[Cu med, cong Ac trans]
+18.6 +12.7 69 +19 +23 1024.9 1007.1
11 19.04 В 4 20 км 5/4 900 м
[Cu med, cong Ac trans]
+18.8 +13.7 72 +20 +27 1025.3 1007.5
12 19.04 В 3 20 км 1/1 1200 м
[Cu med, cong]
+19.0 +13.9 72 +20 +33 опасность
простуды
1025.2 1007.4
13 19.04 В 4 20 км 1/1 1200 м
[Cu med, cong]
+18.8 +14.0 74 +20 +30 1025.3 1007.5
14 19.04 В 4 25 км 3/0
[Ac trans]
+18.8 +14.0 74 +20 +27 1025.2 1007.4
15 19.04 В 4 20 км 5/0 2000 м
[Ac trans Ci fib]
+18.2 +14.4 78 +18 +23 1025.0 1007.2
16 19.04 Ю 2 20 км 5/0
[Ac trans Ci fib]
+18.0 +13.8 76 +19 +22 1024.8 1007.0
17 19.04 В 4 20 км 9/0
[Ci fib]
+17.2 +15.3 89 +17 +18 1024.8 1007.0
18 19.04 ЮВ 3 20 км 9/1 300 м
[Cu med, cong Ci fib]
+16.0 +15.0 94 +16 +16 1024.8 1006.9 +19.4
19 19.04 В 2 20 км 9/1 300 м
[Cu med, cong As trans Ci fib]
+14.8 +14.2 96 +14 +14 1025.0 1007.0
20 19.04 З 3 10 км 10/1 600 м
[Cu med, cong Ci fib]
+14.2 +13.2 94 +13 +13 1025.2 1007.2
21 19.04 СЗ 4 20 км 9/0
[Ci fib]
+13.2 +10.0 81 +11 +11 1025.7 1007.6
23 19.04 СЗ 6 20 км 5/1 900 м
[Cu med, cong Ac trans Ci fib]
+12.4 +5.0 61 +10 +10 1025.3 1007.2
00 20.04 СЗ 5 20 км 3/1 900 м
[Cu med, cong Ci fib]
+12.0 +4.5 60 +10 +10 1025.1 1007.0
01 20.04 СВ 5 20 км 5/1 900 м
[Cu med, cong Ci fib]
+12.4 +10.7 89 +10 +10 1024.4 1006.2
03 20.04 С 5 20 км 6/1 900 м
[Cu med, cong Ac trans Ci fib]
+12.0 +8.4 79 +10 +10 1024.1 1006.0
04 20.04 СВ 7 20 км 6/3 900 м
[Cu med, cong Ac trans Ci fib]
+12.6 +10.1 85 +10 +10 1024.2 1006.0
05 20.04 С 5 25 км 9/3 600 м
[Cu med, cong As trans Ci fib]
+12.0 +8.4 79 +10 +10 1023.7 1005.5
06 20.04 С 5 20 км 10/1 900 м
[Cu med, cong As trans Ci fib]
+11.6 +6.7 72 +9 +9 1023.7 1005.5 +11.6

 

Местоположение метеостанции Капо Беллависто (Италия): широта 39.93 долгота 9.72 высота над уровнем моря 150 м.

В архиве по умолчанию представлена погода на Капо Беллависто за последнюю неделю. Архивные данные за месяц целиком и за предыдущие месяцы, начиная с января 2011 года, Вы можете получить, выбрав интересующий диапазон дат из раскрывающегося списка и нажав кнопку "Ввод!".


*Определитесь, кто Вы:
робот инопланетянин человек

Внимание! Время в таблицах - всемирное. Для получения местного времени необходимо прибавить поправку, которая равна 1 ч.

Смотрите также архив погоды в соседних городах и на ближайших метеорологических станциях:

Погода в Дечимоманну (Италия) (91 км)
Погода на Капо Карбонара (Италия) (94 км)
Погода на Капо Фраска (Италия) (109 км)
Погода в Ольвии (Италия) (109 км)
Погода в Альгеро (Италия) (145 км)
Погода на Капо Кацция (Италия) (150 км)
Погода на Мысе Пертюзато (Франция) (167 км)
Погода в Фигари (Франция) (182 км)
Погода в Соленцаре (Франция) (223 км)
Погода в Аяччо (Франция) (234 км)

Пояснения к столбцам:

Ветер - указаны скорость ветра в м/с - средняя за 10 мин, порывы в срок и между сроками (в фигурных скобках) и направление, откуда дует ветер: С - северный, СВ - северо-восточный, В - восточный, ЮВ - юго-восточный, Ю - южный, ЮЗ - юго-западный, З - западный, СЗ - северо-западный.
Видимость - горизонтальная дальность видимости в метрах или километрах. При видимости от 1 до 10 км при отсутствии осадков обычно наблюдается дымка, при ухудшении видимости до 1 км и менее - туман. В сухую погоду видимость может ухудшаться дымом, пылью или мглою.
Явления - указаны атмосферные явления, наблюдавшиеся в срок или в последний час перед сроком; фигурными скобками обозначены явления, наблюдавшиеся между сроками (за 1-3 часа до срока); квадратными скобками обозначены град или гололедные отложения с указанием их диаметра в мм.
Облачность - указаны через наклонную черту общая и нижняя облачность в баллах и высота нижней границы облаков в метрах; квадратными скобками обозначены формы облаков: Ci - перистые, Cs - перисто-слоистые, Cc - перисто-кучевые, Ac - высококучевые, As - высокослоистые, Sc - слоисто-кучевые, Ns - слоисто-дождевые, Cu - кучевые, Cb - кучево-дождевые. Подробнее классификацию облаков см. в Атласе облаков (PDF).
T - Температура воздуха - температура, измеренная на высоте 2 м над землей.
Td - Температура точки росы - температура, при понижении до которой содержащийся в воздухе водяной пар достигнет насыщения.
f - Относительная влажность воздуха - влажноcть воздуха, измеренная на высоте 2 м над землей.
Te - Эффективная температура - температура, которую ощущает одетый по сезону человек в тени. Характеристика душности погоды. При расчете учитывается влияние влажности воздуха и скорости ветра на теплоощущения человека.
Tes - Эффективная температура на солнце - температура, которую ощущает человек, с поправкой на солнечный нагрев. Характеристика знойности погоды. Зависит от высоты солнца над горизонтом, облачности и скорости ветра. Ночью, в пасмурную погоду, а также при ветре 12 м/с и более поправка равна нулю.
P - Атмосферное давление - приведенное к уровню моря атмосферное давление.
Po - Атмосферное давление - измеренное на уровне метеостанции атмосферное давление.
Tmin - Минимальная температура - минимум температуры воздуха на высоте 2 м над землей.
Tmax - Максимальная температура - максимум температуры воздуха на высоте 2 м над землей.
R - Количество осадков - Количество выпавших осадков за период времени, мм. При наведении курсора мыши на число - период времени, за который выпало указанное количество осадков.
R24 - Количество осадков - Количество выпавших осадков за 24 часа, мм.
S - Снежный покров - Высота снежного покрова, см. При наведении курсора мыши на число - состояние снежного покрова и степень покрытия местности в баллах.